Time,TemperatureF,DewpointF,PressureIn,WindDirection,WindDirectionDegrees,WindSpeedMPH,WindSpeedGustMPH,Humidity,HourlyPrecipIn,Conditions,Clouds,dailyrainin,SolarRadiationWatts/m^2,SoftwareType,DateUTC
2013-01-04 00:03:00,56.0,56.0,-100.00,North,6,6.0,-999.0,99,0.00,,,-99.99,0.800000,,2013-01-04 05:03:00,
2013-01-04 00:12:00,56.0,56.0,-100.00,North,359,8.0,-999.0,100,0.00,,,-99.99,0.800000,,2013-01-04 05:12:00,
2013-01-04 00:22:00,56.0,56.0,-100.00,North,359,8.0,-999.0,100,0.00,,,-99.99,0.800000,,2013-01-04 05:22:00,
2013-01-04 00:33:00,55.0,55.0,-100.00,North,7,10.0,-999.0,100,0.00,,,-99.99,0.800000,,2013-01-04 05:33:00,
2013-01-04 00:42:00,55.0,55.0,-100.00,North,7,10.0,-999.0,100,0.00,,,-99.99,0.800000,,2013-01-04 05:42:00,
2013-01-04 00:53:00,55.0,55.0,-100.00,North,4,7.0,-999.0,100,0.00,,,-99.99,0.800000,,2013-01-04 05:53:00,
2013-01-04 01:02:00,55.0,55.0,-100.00,North,349,9.0,-999.0,100,0.00,,,-99.99,0.800000,,2013-01-04 06:02:00,
2013-01-04 01:12:00,55.0,55.0,-100.00,North,349,9.0,-999.0,100,0.00,,,-99.99,0.800000,,2013-01-04 06:12:00,
2013-01-04 01:22:00,54.0,54.0,-100.00,North,2,10.0,-999.0,100,0.00,,,-99.99,0.800000,,2013-01-04 06:22:00,
2013-01-04 01:33:00,53.0,53.0,-100.00,North,2,8.0,-999.0,100,0.00,,,-99.99,0.800000,,2013-01-04 06:33:00,
2013-01-04 01:42:00,52.0,52.0,-100.00,North,10,7.0,-999.0,100,0.00,,,-99.99,0.800000,,2013-01-04 06:42:00,
2013-01-04 01:53:00,52.0,52.0,-100.00,North,10,7.0,-999.0,100,0.00,,,-99.99,0.800000,,2013-01-04 06:53:00,
2013-01-04 02:02:00,53.0,53.0,-100.00,North,2,6.0,-999.0,100,0.00,,,-99.99,0.800000,,2013-01-04 07:02:00,
2013-01-04 02:12:00,53.0,53.0,-100.00,North,2,6.0,-999.0,100,0.00,,,-99.99,0.800000,,2013-01-04 07:12:00,
2013-01-04 02:22:00,53.0,53.0,-100.00,North,1,7.0,-999.0,100,0.00,,,-99.99,0.800000,,2013-01-04 07:22:00,
2013-01-04 02:32:00,53.0,53.0,-100.00,North,357,6.0,-999.0,100,0.00,,,-99.99,0.800000,,2013-01-04 07:32:00,
2013-01-04 02:42:00,53.0,53.0,-100.00,North,357,6.0,-999.0,100,0.00,,,-99.99,0.800000,,2013-01-04 07:42:00,
2013-01-04 02:52:00,53.0,53.0,-100.00,North,360,7.0,-999.0,100,0.00,,,-99.99,0.800000,,2013-01-04 07:52:00,
2013-01-04 03:02:00,53.0,53.0,-100.00,North,3,7.0,-999.0,100,0.08,,,-99.99,0.800000,,2013-01-04 08:02:00,
2013-01-04 03:12:00,53.0,53.0,-100.00,North,7,7.0,-999.0,100,0.03,,,-99.99,0.800000,,2013-01-04 08:12:00,
2013-01-04 03:23:00,53.0,53.0,-100.00,North,7,7.0,-999.0,100,0.03,,,-99.99,0.800000,,2013-01-04 08:23:00,
2013-01-04 03:32:00,53.0,53.0,-100.00,NNE,15,7.0,-999.0,100,0.03,,,-99.99,0.800000,,2013-01-04 08:32:00,
2013-01-04 03:42:00,53.0,53.0,-100.00,North,5,6.0,-999.0,100,0.00,,,-99.99,0.800000,,2013-01-04 08:42:00,
2013-01-04 03:53:00,53.0,53.0,-100.00,North,5,6.0,-999.0,100,0.00,,,-99.99,0.800000,,2013-01-04 08:53:00,
2013-01-04 04:02:00,53.0,53.0,-100.00,North,5,6.0,-999.0,100,0.00,,,-99.99,0.800000,,2013-01-04 09:02:00,